This is the latest recevied weather packets stored in our database for station/object R1CBW-13. If no packets are shown the sender has not sent any weather packets the latest 10 day(s).
| Time | Temp. | Humidity | Pressure | Rain* | Wind** | Luminosity | Snow |
|---|---|---|---|---|---|---|---|
| 1777281130 | 4.44° C | 60% | 1004.3 hPa | 0 mm | - | - | - |
| 1777281070 | 3.33° C | 61% | 1004.3 hPa | 0 mm | - | - | - |
| 1777281010 | 3.33° C | 61% | 1004.4 hPa | 0 mm | - | - | - |
| 1777280950 | 3.33° C | 61% | 1004.6 hPa | 0 mm | - | - | - |
| 1777280890 | 3.33° C | 61% | 1004.1 hPa | 0 mm | - | - | - |
| 1777280830 | 3.33° C | 61% | 1004.1 hPa | 0 mm | - | - | - |
| 1777280770 | 3.89° C | 59% | 1004.2 hPa | 0 mm | - | - | - |
| 1777280710 | 3.89° C | 60% | 1004.3 hPa | 0 mm | - | - | - |
| 1777280650 | 3.89° C | 61% | 1004.3 hPa | 0 mm | - | - | - |
| 1777280590 | 3.33° C | 61% | 1004.7 hPa | 0 mm | - | - | - |
| 1777280530 | 3.89° C | 61% | 1004.1 hPa | 0 mm | - | - | - |
| 1777280470 | 3.89° C | 62% | 1004.2 hPa | 0 mm | - | - | - |
| 1777280410 | 3.33° C | 63% | 1004.3 hPa | 0 mm | - | - | - |
| 1777280350 | 3.33° C | 61% | 1004.4 hPa | 0 mm | - | - | - |
| 1777280290 | 3.33° C | 62% | 1004.3 hPa | 0 mm | - | - | - |
| 1777280230 | 3.89° C | 62% | 1004.3 hPa | 0 mm | - | - | - |
| 1777280170 | 4.44° C | 62% | 1004.3 hPa | 0 mm | - | - | - |
| 1777280110 | 3.89° C | 61% | 1004.2 hPa | 0 mm | - | - | - |
| 1777280050 | 3.89° C | 62% | 1004.1 hPa | 0 mm | - | - | - |
| 1777279990 | 3.33° C | 62% | 1004.1 hPa | 0 mm | - | - | - |
| 1777279930 | 3.89° C | 61% | 1004.5 hPa | 0 mm | - | - | - |
| 1777279870 | 3.33° C | 61% | 1004.1 hPa | 0 mm | - | - | - |
| 1777279810 | 3.33° C | 61% | 1004.2 hPa | 0 mm | - | - | - |
| 1777279750 | 2.78° C | 61% | 1004.4 hPa | 0 mm | - | - | - |
| 1777279690 | 3.33° C | 61% | 1004.2 hPa | 0 mm | - | - | - |
* Rain latest hour (hover to see other rain measurements)
** Current wind speed in m/s (hover to see current wind gust speed)